Flag for Kazakhstan Weather past 2 weeks in Astana, Kazakhstan

Now
21 °F

Sunny.


Feels Like: 10 °F
Forecast: 2 / 20 °F
Wind: 10 mph from East

Location: Astana

Current Time: Mar 2, 2015 at 6:19:14 PM

Latest Report: Mar 2, 2015 at 6:00 PM


Visibility: 10 mi

Pressure: 30.36 "Hg

Humidity: 74%

Dew point: 14 °F

Location of AstanaLocation

Historic Weather in Astana — Graph

°F

Astana temperature yesterday

Maximum temperature yesterday: 27 °F (at 12:30 PM)
Minimum temperature yesterday: 5 °F (at 11:30 PM)
Average temperature yesterday: 18 °F

Past Weeks' High & Low Weather Summary

 TemperatureHumidityPressure
High30 °F (Feb 25, 2:00 PM)93% (Feb 16, 11:30 AM)30.63 "Hg (Feb 16, 11:30 AM)
Low-20 °F (Feb 18, 8:00 AM)50% (Feb 19, 2:00 PM)29.92 "Hg (Feb 16, 2:30 PM)
Average11 °F81%30.30 "Hg
* Reported Feb 15 5:00 PM — Mar 2 5:00 PM, Astana, Weather by CustomWeather, © 2015

Note: Actual official high and low records may vary slightly from our data, if they occured in-between our weather recording intervals... More about our weather records

Advertising

Astana weather history for previous 24 hours

 ConditionsComfort  
Time TempWeatherWind HumidityBarometerVisibility
5:00 PM
Mon, Mar 2
23 °FSunny.13 mph74%30.36 "Hg10 mi
4:30 PM25 °FSunny.10 mph69%30.36 "Hg10 mi
4:00 PM25 °FSunny.13 mph69%30.39 "Hg10 mi
3:30 PM25 °FSunny.15 mph69%30.39 "Hg10 mi
3:00 PM25 °FSunny.13 mph69%30.39 "Hg10 mi
2:30 PM25 °FSunny.10 mph69%30.39 "Hg10 mi
2:00 PM23 °FSunny.10 mph74%30.39 "Hg10 mi
1:30 PM23 °FSunny.10 mph74%30.39 "Hg10 mi
1:00 PM19 °FSunny.8 mph79%30.42 "Hg10 mi
12:30 PM19 °FSunny.13 mph73%30.42 "Hg10 mi
12:00 PM18 °FSunny.15 mph79%30.42 "Hg10 mi
11:30 AM16 °FSunny.13 mph79%30.42 "Hg10 mi
11:00 AM14 °FSunny.13 mph85%30.42 "Hg10 mi
10:30 AM12 °FSunny.10 mph85%30.45 "Hg10 mi
10:00 AM9 °FSunny.8 mph85%30.45 "Hg10 mi
9:30 AM5 °FSunny.6 mph78%30.45 "Hg10 mi
9:00 AM3 °FSunny.6 mph85%30.45 "Hg10 mi
8:30 AM3 °FClear.6 mph85%30.45 "Hg10 mi
8:00 AM0 °FClear.8 mph84%30.45 "Hg10 mi
7:30 AM1 °FClear.8 mph78%30.45 "Hg10 mi
7:00 AM1 °FClear.8 mph78%30.45 "Hg10 mi
6:30 AM3 °FClear.8 mph85%30.45 "Hg10 mi
6:00 AM3 °FClear.10 mph85%30.45 "Hg10 mi
5:30 AM1 °FClear.8 mph85%30.45 "Hg10 mi
5:00 AM1 °FClear.8 mph85%30.48 "Hg10 mi
4:30 AM3 °FClear.8 mph78%30.48 "Hg10 mi
4:00 AM1 °FClear.8 mph85%30.48 "Hg10 mi
3:30 AM1 °FClear.10 mph85%30.48 "Hg10 mi
3:00 AM3 °FClear.8 mph85%30.48 "Hg10 mi
2:30 AM3 °FClear.8 mph85%30.51 "Hg10 mi
1:30 AM3 °FClear.10 mph85%30.51 "Hg5 mi
1:00 AM3 °FClear.8 mph85%30.51 "Hg10 mi
12:30 AM3 °FClear.8 mph85%30.51 "Hg10 mi
12:00 AM3 °FClear.8 mph85%30.54 "Hg10 mi
11:30 PM
Sun, Mar 1
5 °FClear.8 mph85%30.54 "Hg10 mi
11:00 PM7 °FClear.8 mph85%30.54 "Hg10 mi
10:30 PM9 °FClear.10 mph85%30.54 "Hg10 mi
10:00 PM7 °FClear.8 mph85%30.57 "Hg10 mi
9:30 PM10 °FClear.10 mph79%30.57 "Hg10 mi
9:00 PM12 °FClear.10 mph85%30.57 "Hg10 mi
8:30 PM14 °FClear.10 mph85%30.57 "Hg10 mi
8:00 PM16 °FClear.10 mph79%30.57 "Hg10 mi
7:30 PM16 °FSunny.10 mph86%30.57 "Hg10 mi
7:00 PM19 °FScattered clouds.8 mph79%30.57 "HgN/A
6:30 PM23 °FScattered clouds.10 mph80%30.57 "HgN/A
6:00 PM27 °FPartly sunny.13 mph69%30.57 "HgN/A
Weather by CustomWeather, © 2015

See weather overviewHow to use our weather pages